Hourly Weather Rvenica

Today, 20 April, Tuesday

Time Temperature Precipitation Wind Pressure Humidity
00:00 +4°C° 0 mm 3 mps 753 mmHg 66%
01:00 +3°C° 0 mm 3 mps 753 mmHg 66%
02:00 +3°C° 0 mm 3 mps 752 mmHg 68%
03:00 +2°C° 0 mm 3 mps 752 mmHg 70%
04:00 +2°C° 0 mm 3 mps 752 mmHg 71%
05:00 +1°C° 0 mm 3 mps 752 mmHg 73%
06:00 +2°C° 0 mm 3 mps 752 mmHg 69%
07:00 +3°C° 0 mm 3 mps 752 mmHg 65%
08:00 +3°C° 0 mm 4 mps 752 mmHg 61%
09:00 +4°C° 0 mm 4 mps 751 mmHg 60%
10:00 +5°C° 0 mm 4 mps 751 mmHg 59%
11:00 +6°C° 0 mm 4 mps 750 mmHg 58%
12:00 +7°C° 0 mm 4 mps 750 mmHg 58%
13:00 +7°C° 0 mm 4 mps 750 mmHg 57%
14:00 +7°C° 0 mm 4 mps 749 mmHg 57%
15:00 +7°C° 0 mm 4 mps 749 mmHg 61%
16:00 +6°C° 0 mm 4 mps 749 mmHg 65%
17:00 +6°C° 0 mm 5 mps 748 mmHg 69%
18:00 +5°C° 0 mm 4 mps 748 mmHg 77%
19:00 +4°C° 0 mm 4 mps 748 mmHg 85%
20:00 +3°C° 0 mm 3 mps 747 mmHg 93%
21:00 +3°C° 0.1 mm 3 mps 747 mmHg 94%
22:00 +3°C° 0.1 mm 3 mps 746 mmHg 94%
23:00 +3°C° 0.1 mm 3 mps 745 mmHg 95%

Tomorrow, 21 April, Wednesday

Time Temperature Precipitation Wind Pressure Humidity
00:00 +3°C° 0.1 mm 3 mps 744 mmHg 95%
01:00 +3°C° 0.1 mm 3 mps 744 mmHg 95%
02:00 +3°C° 0.1 mm 3 mps 743 mmHg 95%
03:00 +2°C° 0.7 mm 3 mps 742 mmHg 95%
04:00 +1°C° 0.7 mm 3 mps 741 mmHg 96%
05:00 0°C° 0.7 mm 3 mps 740 mmHg 97%
06:00 0°C° 1.1 mm 3 mps 740 mmHg 97%
07:00 +1°C° 1.1 mm 2 mps 739 mmHg 98%
08:00 +1°C° 1.1 mm 2 mps 738 mmHg 99%
09:00 +1°C° 0.7 mm 2 mps 738 mmHg 99%
10:00 +2°C° 0.7 mm 2 mps 738 mmHg 98%
11:00 +3°C° 0.7 mm 1 mps 737 mmHg 98%
12:00 +2°C° 0.3 mm 2 mps 737 mmHg 98%
13:00 +2°C° 0.3 mm 2 mps 737 mmHg 98%
14:00 +2°C° 0.3 mm 2 mps 737 mmHg 98%
15:00 +2°C° 0.1 mm 2 mps 737 mmHg 98%
16:00 +2°C° 0.1 mm 2 mps 737 mmHg 97%
17:00 +1°C° 0.1 mm 3 mps 738 mmHg 96%
18:00 +1°C° 0 mm 3 mps 738 mmHg 97%
19:00 +2°C° 0 mm 2 mps 738 mmHg 97%
20:00 +2°C° 0 mm 2 mps 739 mmHg 97%
21:00 +2°C° 0 mm 2 mps 739 mmHg 97%
22:00 +2°C° 0 mm 2 mps 739 mmHg 97%
23:00 +3°C° 0 mm 2 mps 740 mmHg 98%

Day after tomorrow, 22 April, Thursday

Time Temperature Precipitation Wind Pressure Humidity
00:00 +3°C° 0 mm 2 mps 740 mmHg 97%
01:00 +3°C° 0 mm 2 mps 740 mmHg 96%
02:00 +3°C° 0 mm 2 mps 740 mmHg 95%
03:00 +2°C° 0 mm 2 mps 741 mmHg 96%
04:00 +2°C° 0 mm 2 mps 741 mmHg 96%
05:00 +1°C° 0 mm 2 mps 741 mmHg 96%
06:00 +3°C° 0 mm 2 mps 741 mmHg 91%
07:00 +5°C° 0 mm 2 mps 742 mmHg 86%
08:00 +7°C° 0 mm 2 mps 742 mmHg 80%
09:00 +8°C° 0.1 mm 3 mps 742 mmHg 76%
10:00 +9°C° 0.1 mm 3 mps 742 mmHg 71%
11:00 +11°C° 0.1 mm 4 mps 742 mmHg 66%
12:00 +11°C° 0.2 mm 4 mps 742 mmHg 64%
13:00 +12°C° 0.2 mm 4 mps 742 mmHg 63%
14:00 +12°C° 0.2 mm 4 mps 742 mmHg 62%
15:00 +12°C° 0.2 mm 4 mps 742 mmHg 64%
16:00 +11°C° 0.2 mm 4 mps 743 mmHg 66%
17:00 +11°C° 0.2 mm 3 mps 743 mmHg 68%
18:00 +9°C° 0 mm 3 mps 743 mmHg 75%
19:00 +8°C° 0 mm 3 mps 743 mmHg 82%
20:00 +5°C° 0 mm 3 mps 743 mmHg 89%
21:00 +5°C° 0 mm 3 mps 743 mmHg 90%
22:00 +5°C° 0 mm 3 mps 743 mmHg 91%
23:00 +5°C° 0 mm 3 mps 742 mmHg 92%

23 April, Friday

Time Temperature Precipitation Wind Pressure Humidity
00:00 +4°C° 0.1 mm 3 mps 742 mmHg 94%
01:00 +5°C° 0.1 mm 2 mps 742 mmHg 95%
02:00 +5°C° 0.1 mm 2 mps 742 mmHg 97%
03:00 +5°C° 0 mm 2 mps 742 mmHg 97%
04:00 +5°C° 0 mm 2 mps 742 mmHg 98%
05:00 +5°C° 0 mm 2 mps 741 mmHg 98%
06:00 +5°C° 0.1 mm 3 mps 741 mmHg 94%
07:00 +7°C° 0.1 mm 4 mps 741 mmHg 89%
08:00 +8°C° 0.1 mm 5 mps 741 mmHg 85%
09:00 +7°C° 0.1 mm 4 mps 741 mmHg 86%
10:00 +7°C° 0.1 mm 4 mps 742 mmHg 87%
11:00 +6°C° 0.1 mm 4 mps 742 mmHg 88%
12:00 +8°C° 0 mm 3 mps 742 mmHg 83%
13:00 +8°C° 0 mm 3 mps 743 mmHg 78%
14:00 +8°C° 0 mm 3 mps 743 mmHg 73%
15:00 +8°C° 0.1 mm 2 mps 743 mmHg 75%
16:00 +9°C° 0.1 mm 1 mps 743 mmHg 76%
17:00 +8°C° 0.1 mm 1 mps 743 mmHg 78%
18:00 +7°C° 0.5 mm 1 mps 743 mmHg 83%
19:00 +6°C° 0.5 mm 1 mps 743 mmHg 87%
20:00 +6°C° 0.5 mm 1 mps 743 mmHg 92%
21:00 +6°C° 0 mm 1 mps 743 mmHg 92%
22:00 +5°C° 0 mm 1 mps 743 mmHg 93%
23:00 +5°C° 0 mm 1 mps 743 mmHg 93%

24 April, Saturday

Time Temperature Precipitation Wind Pressure Humidity
00:00 +5°C° 0.1 mm 1 mps 742 mmHg 92%
01:00 +5°C° 0.1 mm 1 mps 742 mmHg 91%
02:00 +5°C° 0.1 mm 1 mps 742 mmHg 90%
03:00 +5°C° 0.1 mm 1 mps 742 mmHg 90%
04:00 +5°C° 0.1 mm 1 mps 742 mmHg 90%
05:00 +5°C° 0.1 mm 1 mps 741 mmHg 90%
06:00 +5°C° 0.1 mm 1 mps 741 mmHg 86%
07:00 +6°C° 0.1 mm 1 mps 741 mmHg 82%
08:00 +5°C° 0.1 mm 2 mps 741 mmHg 78%
09:00 +6°C° 0.2 mm 2 mps 741 mmHg 72%
10:00 +7°C° 0.2 mm 2 mps 741 mmHg 65%
11:00 +8°C° 0.2 mm 2 mps 741 mmHg 59%
12:00 +8°C° 0.2 mm 3 mps 741 mmHg 55%
13:00 +8°C° 0.2 mm 3 mps 741 mmHg 51%
14:00 +9°C° 0.2 mm 3 mps 741 mmHg 48%
15:00 +8°C° 0.1 mm 3 mps 741 mmHg 50%
16:00 +8°C° 0.1 mm 3 mps 741 mmHg 53%
17:00 +7°C° 0.1 mm 2 mps 741 mmHg 55%
18:00 +6°C° 0 mm 2 mps 741 mmHg 62%
19:00 +4°C° 0 mm 2 mps 741 mmHg 68%
20:00 +4°C° 0 mm 1 mps 741 mmHg 74%
21:00 +3°C° 0 mm 1 mps 741 mmHg 77%
22:00 +3°C° 0 mm 1 mps 742 mmHg 79%
23:00 +2°C° 0 mm 1 mps 742 mmHg 81%

25 April, Sunday

Time Temperature Precipitation Wind Pressure Humidity
00:00 +2°C° 0 mm 1 mps 742 mmHg 82%
01:00 +1°C° 0 mm 1 mps 742 mmHg 83%
02:00 +1°C° 0 mm 1 mps 742 mmHg 84%
03:00 +1°C° 0 mm 1 mps 742 mmHg 85%
04:00 +1°C° 0 mm 1 mps 742 mmHg 85%
05:00 +1°C° 0 mm 1 mps 742 mmHg 85%
06:00 +3°C° 0 mm 1 mps 742 mmHg 77%
07:00 +5°C° 0 mm 1 mps 742 mmHg 69%
08:00 +6°C° 0 mm 1 mps 742 mmHg 61%
09:00 +7°C° 0.2 mm 1 mps 742 mmHg 57%
10:00 +8°C° 0.2 mm 1 mps 742 mmHg 52%
11:00 +9°C° 0.2 mm 1 mps 742 mmHg 47%
12:00 +9°C° 0.4 mm 1 mps 742 mmHg 47%
13:00 +8°C° 0.4 mm 2 mps 742 mmHg 48%
14:00 +8°C° 0.4 mm 2 mps 742 mmHg 48%
15:00 +8°C° 0.2 mm 2 mps 742 mmHg 53%
16:00 +8°C° 0.2 mm 1 mps 742 mmHg 57%
17:00 +8°C° 0.2 mm 1 mps 742 mmHg 61%
18:00 +7°C° 0.2 mm 1 mps 742 mmHg 69%
19:00 +5°C° 0.2 mm 1 mps 742 mmHg 76%
20:00 +4°C° 0.2 mm 1 mps 743 mmHg 84%
21:00 +3°C° 0 mm 1 mps 743 mmHg 86%
22:00 +3°C° 0 mm 1 mps 743 mmHg 89%
23:00 +1°C° 0 mm 2 mps 743 mmHg 91%
Show more